Location: Newark
(45.5000°N, 11.4167°E)
Time: 06:44:30
(UTC+00:00)

SR - Visible Passes

Search period start: 22 August 2019 00:00
Search period end: 01 September 2019 00:00
Orbit: 578 x 878 km, 66.7° (Epoch: 20 August)

Date Brightness Start Highest point End Pass type
(mag) Time Alt. Az. Time Alt. Az. Time Alt. Az.
22 Aug ? 20:13:07 10° NNW 20:18:38 74° ENE 20:20:44 40° SE visible
22 Aug ? 21:56:16 10° WNW 22:00:08 20° WSW 22:00:08 20° WSW visible
23 Aug ? 19:23:38 10° NNW 19:28:50 43° NE 19:32:29 20° ESE visible
23 Aug ? 21:05:50 10° NW 21:10:54 37° WSW 21:11:54 34° SW visible
24 Aug ? 18:34:17 10° NNW 18:38:53 27° NE 18:43:42 10° E visible
24 Aug ? 20:15:54 10° NW 20:21:24 67° WSW 20:23:43 36° S visible
24 Aug ? 22:01:29 10° W 22:02:36 11° WSW 22:03:08 10° WSW visible
25 Aug ? 19:26:14 10° NNW 19:31:45 71° NE 19:35:35 22° SE visible
25 Aug ? 21:09:17 10° WNW 21:13:25 21° WSW 21:15:01 19° SW visible
26 Aug ? 18:36:45 10° NNW 18:41:57 41° NE 18:47:25 10° ESE visible
26 Aug ? 20:18:54 10° NW 20:24:03 39° WSW 20:26:57 23° SSW visible
27 Aug ? 19:29:00 10° NW 19:34:33 70° WSW 19:38:58 18° SSE visible
27 Aug ? 21:14:02 10° W 21:15:47 11° WSW 21:17:33 10° WSW visible
28 Aug ? 18:39:20 10° NNW 18:44:53 68° NE 18:50:42 10° SE visible
28 Aug ? 20:22:18 10° WNW 20:26:34 22° WSW 20:30:29 12° SSW visible
29 Aug ? 19:31:58 10° NW 19:37:12 41° WSW 19:42:39 10° S visible
30 Aug ? 18:42:05 10° NW 18:47:41 74° WSW 18:53:32 10° SSE visible
30 Aug ? 20:26:45 10° W 20:28:57 12° WSW 20:31:11 10° SW visible
31 Aug ? 19:35:18 10° WNW 19:39:44 24° WSW 19:44:17 10° SSW visible
